{"data":{"norad_id":60202,"intl_designator":"2024-124V","name":"STARLINK-32041","alt_names":[],"object_type":"PAYLOAD","status":"ACTIVE","operator":null,"country":"US","launch_date":"2024-07-03","launch_site_code":"AFETR","launch_vehicle":null,"mission":null,"orbit_class":"UNKNOWN","rcs_meters":null,"size_class":null,"mass_kg":null,"dimensions":null,"purposes":["comms"],"wikipedia_slug":null,"has_3d_model":false,"image_url":null,"decayed_at":null,"tle_current":{"epoch":"2026-09-21T21:11:28.909536Z","epoch_age_seconds":62077,"freshness":"FRESH","line1":"1 60202U 24124V   26264.88297349  .00000263  00000+0  20255-4 0  9991","line2":"2 60202  53.1593 129.7855 0001333  96.3593 263.7560 15.31695576125555","mean_motion":15.31695576,"eccentricity":0.0001333,"inclination_deg":53.1593,"raan_deg":129.7855,"arg_perigee_deg":96.3593,"mean_anomaly_deg":263.756,"bstar":2.0255e-5,"rev_number":12555,"period_min":94.013459499605,"perigee_km":469.84022590979,"apogee_km":471.66614003257,"semimajor_km":6848.8901829712,"source":"CELESTRAK","updated_at":"2026-09-22T09:00:49.185602Z"}}}